Tracking 19795 objects as of 17-Jul-2019
HD Live streaming from Space Station
objects crossing your sky now

BSAT-2C

Track BSAT-2C now!
BSAT-2C is classified as:


NORAD ID: 27830
Int'l Code: 2003-028A
Perigee: 36,065.9 km
Apogee: 36,125.9 km
Inclination: 4.6 °
Period: 1,451.6 minutes
Semi major axis: 42466 km
RCS: 12.6191 m2 (large)
Launch date: June 11, 2003
Source: Japan (JPN)
Launch site: FRENCH GUIANA (FRGUI)

Backup to BSAT-2A; direct digital broadcasts to homes in Japan and neighboring countries through its Ku-band transponders.
aabbcc
Your satellite tracking list
Your tracking list is empty




NASA's NSSDC Master Catalog

Two Line Element Set (TLE):
1 27830U 03028A   19197.87813094 -.00000262 +00000-0 +00000-0 0  9991
2 27830 004.5977 070.5651 0007053 248.8259 266.0768 00.99203525021587
Source of the keplerian elements: AFSPC